Budapest Ferihegy, Hungary

8:09 AM CEST on June 28, 2017 (GMT +0200)
Ferihegy

Weather History for LHBP - August, 2014

Change the Weather History Date:

Saturday, August 9, 2014

  Actual Average Record
Temperature  
Mean Temperature 72 °F -  
Max Temperature 84 °F 74 °F 98 °F (2013)
Min Temperature 59 °F 54 °F 46 °F (2005)
Cooling Degree Days 6    
Growing Degree Days 22 (Base 50)    
Moisture  
Dew Point 63 °F    
Average Humidity 78    
Maximum Humidity 100    
Minimum Humidity 45    
Precipitation  
Precipitation 0.00 in - - ()
Sea Level Pressure  
Sea Level Pressure 29.98 in    
Wind  
Wind Speed 4 mph ()    
Max Wind Speed 9 mph    
Max Gust Speed -    
Visibility 4.6 miles    
Events Fog    
Averages and records for this station are not official NWS values.
T = Trace of Precipitation, MM = Missing Value Source: Averaged Metar Reports

Daily Weather History Graph

Daily Weather History Graph

Search for Another Location

Airport or City:

Trip Planner

Search our weather history database for the weather conditions in past years. The results will help you decide how hot, cold, wet, or windy it might be!

Date:

Astronomy

Aug. 09, 2014 Rise Set
Actual Time 5:30 AM CEST 8:05 PM CEST
Civil Twilight 4:56 AM CEST 8:39 PM CEST
Nautical Twilight 4:12 AM CEST 9:23 PM CEST
Astronomical Twilight 3:21 AM CEST 10:13 PM CEST
Moon 6:51 PM CEST (8/9) 3:49 AM CEST (8/9)
Length of Visible Light 15h 43m
Length of Day
14h 34m
Waxing Gibbous, 97% of the Moon is Illuminated
Aug 9
Waxing Gibbous
Aug 10
Full
Aug 17
Last Quarter
Aug 25
New
Sep 2
First Quarter

Hourly Weather History & Observations

Time (CEST) Temp. Heat Index Dew Point Humidity Pressure Visibility Wind Dir Wind Speed Gust Speed Precip Events Conditions
12:00 AM 62.6 °F - 60.8 °F 94% 29.98 in - Variable 2.3 mph - N/A   Clear
12:30 AM 62.6 °F - 62.6 °F 100% 29.98 in - Variable 2.3 mph - N/A   Clear
1:00 AM 64.4 °F - 62.6 °F 94% 29.98 in - NNE 4.6 mph - N/A   Clear
1:30 AM 62.6 °F - 60.8 °F 94% 29.98 in - Variable 1.2 mph - N/A   Clear
2:00 AM 62.6 °F - 60.8 °F 94% 29.98 in - Variable 1.2 mph - N/A   Clear
2:30 AM 60.8 °F - 60.8 °F 100% 29.98 in - Calm Calm - N/A   Clear
3:00 AM 60.8 °F - 59.0 °F 94% 29.98 in - Variable 2.3 mph - N/A   Clear
3:30 AM 60.8 °F - 60.8 °F 100% 29.98 in - Variable 1.2 mph - N/A   Clear
4:00 AM 59.0 °F - 59.0 °F 100% 29.98 in - Variable 3.5 mph - N/A   Clear
4:30 AM 60.8 °F - 60.8 °F 100% 29.98 in - Variable 3.5 mph - N/A   Clear
5:00 AM 59.0 °F - 59.0 °F 100% 29.98 in 5.0 mi Variable 3.5 mph - N/A   Unknown
5:30 AM 60.8 °F - 59.0 °F 94% 29.98 in 3.1 mi Variable 2.3 mph - N/A   Scattered Clouds
6:00 AM 62.6 °F - 62.6 °F 100% 30.01 in 0.7 mi Variable 2.3 mph - N/A Fog Patches of Fog
6:30 AM 62.6 °F - 62.6 °F 100% 30.01 in 0.6 mi NE 4.6 mph - N/A Fog Patches of Fog
7:00 AM 62.6 °F - 62.6 °F 100% 30.01 in 0.2 mi ENE 4.6 mph - N/A   Overcast
7:30 AM 66.2 °F - 66.2 °F 100% 30.01 in 1.9 mi Variable 2.3 mph - N/A Fog Patches of Fog
8:00 AM 66.2 °F - 66.2 °F 100% 30.01 in 2.8 mi ENE 4.6 mph - N/A   Partly Cloudy
8:30 AM 68.0 °F - 64.4 °F 88% 30.01 in 3.7 mi East 5.8 mph - N/A   Partly Cloudy
9:00 AM 69.8 °F - 66.2 °F 88% 30.01 in 5.0 mi East 6.9 mph - N/A   Partly Cloudy
9:30 AM 71.6 °F - 68.0 °F 88% 30.01 in 6.2 mi ENE 6.9 mph - N/A   Partly Cloudy
10:00 AM 71.6 °F - 66.2 °F 83% 30.01 in 6.2 mi East 9.2 mph - N/A   Partly Cloudy
10:30 AM 73.4 °F - 66.2 °F 78% 30.01 in 6.2 mi ESE 9.2 mph - N/A   Partly Cloudy
11:00 AM 75.2 °F - 68.0 °F 78% 30.01 in 6.2 mi East 9.2 mph - N/A   Partly Cloudy
11:30 AM 75.2 °F - 66.2 °F 73% 29.98 in 6.2 mi ESE 8.1 mph - N/A   Partly Cloudy
12:00 PM 77.0 °F - 68.0 °F 74% 29.98 in 6.2 mi ESE 9.2 mph - N/A   Scattered Clouds
12:30 PM 78.8 °F - 64.4 °F 61% 29.98 in 6.2 mi ESE 6.9 mph - N/A   Scattered Clouds
1:00 PM 78.8 °F - 64.4 °F 61% 29.98 in 6.2 mi SE 6.9 mph - N/A   Mostly Cloudy
1:30 PM 80.6 °F 82.7 °F 66.2 °F 61% 29.98 in 6.2 mi SE 8.1 mph - N/A   Scattered Clouds
2:00 PM 80.6 °F 82.3 °F 64.4 °F 58% 29.98 in 6.2 mi SE 8.1 mph - N/A   Scattered Clouds
2:30 PM 82.4 °F 83.4 °F 62.6 °F 51% 29.98 in 6.2 mi SSE 8.1 mph - N/A   Scattered Clouds
3:00 PM 82.4 °F 82.9 °F 60.8 °F 48% 29.98 in 6.2 mi South 9.2 mph - N/A   Scattered Clouds
3:30 PM 84.2 °F 85.0 °F 62.6 °F 48% 29.95 in - South 6.9 mph - N/A   Clear
4:00 PM 82.4 °F 82.5 °F 59.0 °F 45% 29.95 in - South 8.1 mph - N/A   Clear
4:30 PM 82.4 °F 82.9 °F 60.8 °F 48% 29.95 in - South 9.2 mph - N/A   Clear
5:00 PM 82.4 °F 82.9 °F 60.8 °F 48% 29.95 in - South 8.1 mph - N/A   Clear
5:30 PM 82.4 °F 82.9 °F 60.8 °F 48% 29.95 in - SSE 9.2 mph - N/A   Clear
6:00 PM 82.4 °F 82.9 °F 60.8 °F 48% 29.95 in - South 6.9 mph - N/A   Clear
6:30 PM 82.4 °F 82.9 °F 60.8 °F 48% 29.95 in - South 8.1 mph - N/A   Clear
7:00 PM 82.4 °F 82.9 °F 60.8 °F 48% 29.95 in - South 6.9 mph - N/A   Clear
7:30 PM 80.6 °F 81.8 °F 62.6 °F 54% 29.95 in - Variable 3.5 mph - N/A   Clear
8:00 PM 78.8 °F - 64.4 °F 61% 29.95 in - Variable 1.2 mph - N/A   Clear
8:30 PM 75.2 °F - 64.4 °F 69% 29.98 in - Variable 3.5 mph - N/A   Clear
9:00 PM 71.6 °F - 66.2 °F 83% 29.98 in - Variable 1.2 mph - N/A   Clear
9:30 PM 71.6 °F - 66.2 °F 83% 29.98 in - Variable 3.5 mph - N/A   Clear
10:00 PM 71.6 °F - 64.4 °F 78% 29.98 in - Variable 2.3 mph - N/A   Clear
10:30 PM 69.8 °F - 66.2 °F 88% 30.01 in - Variable 3.5 mph - N/A   Clear
11:00 PM 69.8 °F - 64.4 °F 83% 30.01 in - Variable 3.5 mph - N/A   Clear
11:30 PM 68.0 °F - 64.4 °F 88% 30.01 in - Variable 3.5 mph - N/A   Clear